TimeHST,TemperatureF,Dew PointF,Humidity,Sea Level PressureIn,VisibilityMPH,Wind Direction,Wind SpeedMPH,Gust SpeedMPH,PrecipitationIn,Events,Conditions,WindDirDegrees,DateUTC
12:54 AM,73.9,69.1,85,30.07,10.0,NE,10.4,-,0.00,,Scattered Clouds,50,2013-11-02 10:54:00
1:54 AM,73.0,68.0,84,30.05,10.0,NE,8.1,-,N/A,,Clear,50,2013-11-02 11:54:00
2:54 AM,73.9,66.9,79,30.03,10.0,NNE,12.7,-,N/A,,Clear,30,2013-11-02 12:54:00
3:54 AM,73.9,66.9,79,30.03,10.0,NNE,13.8,-,N/A,,Clear,30,2013-11-02 13:54:00
4:54 AM,73.9,64.0,71,30.04,10.0,NE,12.7,-,N/A,,Clear,50,2013-11-02 14:54:00
5:54 AM,73.9,66.0,76,30.05,10.0,NE,12.7,-,N/A,,Scattered Clouds,40,2013-11-02 15:54:00
6:54 AM,73.9,66.9,79,30.07,10.0,NE,11.5,-,N/A,,Scattered Clouds,40,2013-11-02 16:54:00
7:54 AM,77.0,66.9,71,30.09,10.0,NE,9.2,-,N/A,,Scattered Clouds,50,2013-11-02 17:54:00
8:54 AM,80.1,66.9,64,30.11,10.0,NE,15.0,-,N/A,,Scattered Clouds,50,2013-11-02 18:54:00
9:54 AM,82.0,66.9,60,30.11,10.0,ENE,16.1,23.0,0.00,,Scattered Clouds,60,2013-11-02 19:54:00
10:54 AM,82.9,66.0,56,30.09,10.0,ENE,17.3,25.3,N/A,,Scattered Clouds,60,2013-11-02 20:54:00
12:54 PM,84.0,66.0,55,30.04,10.0,NE,20.7,26.5,0.00,,Scattered Clouds,50,2013-11-02 22:54:00
1:54 PM,84.0,66.9,56,30.02,10.0,NE,21.9,28.8,N/A,,Scattered Clouds,40,2013-11-02 23:54:00
2:54 PM,82.9,64.9,54,30.00,10.0,ENE,20.7,34.5,0.00,,Scattered Clouds,60,2013-11-03 00:54:00
3:54 PM,80.1,66.0,62,30.01,10.0,ENE,16.1,29.9,0.00,,Scattered Clouds,70,2013-11-03 01:54:00
4:54 PM,79.0,66.0,64,30.01,10.0,NE,15.0,23.0,N/A,,Scattered Clouds,50,2013-11-03 02:54:00
5:54 PM,77.0,66.0,69,30.03,10.0,NE,13.8,-,N/A,,Scattered Clouds,50,2013-11-03 03:54:00
6:54 PM,73.9,68.0,82,30.05,10.0,ENE,10.4,-,0.01,,Partly Cloudy,60,2013-11-03 04:54:00
7:54 PM,75.0,68.0,79,30.07,10.0,ENE,5.8,-,0.00,Rain,Light Rain,70,2013-11-03 05:54:00
8:54 PM,73.9,68.0,82,30.08,10.0,ENE,3.5,-,0.07,,Mostly Cloudy,60,2013-11-03 06:54:00
9:54 PM,73.9,68.0,82,30.08,10.0,NE,10.4,-,0.00,Rain,Light Rain,40,2013-11-03 07:54:00
10:54 PM,73.9,68.0,82,30.08,10.0,NE,12.7,-,0.00,,Partly Cloudy,40,2013-11-03 08:54:00
11:54 PM,73.9,66.9,79,30.07,10.0,NE,13.8,-,0.00,,Clear,50,2013-11-03 09:54:00